When you browse on this site, cookies collect data to enhance your experience and personalize the content and advertising you see.
Visit our Privacy Policy to learn more. By continuing to use the site, you agree to this use of cookies and data.
  • en France
  • Liste des pays
  • À 7 jours
  • Température de l'eau
  • Carte satellitaire
  • Carte météo
  • Widgets météo
  • user-avatar
    Se connecter

    Météo par heure à Limoges

    Ce jour, 25 Mai, Samedi

    Heure Température Précipitation Vent Pression Humidité
    00:00 +11°C° 0 mm 1 m/s 733 mmHg 98%
    01:00 +11°C° 0 mm 1 m/s 733 mmHg 98%
    02:00 +9°C° 0 mm 0 m/s 734 mmHg 99%
    03:00 +9°C° 0 mm 0 m/s 734 mmHg 99%
    04:00 +11°C° 0 mm 1 m/s 734 mmHg 99%
    05:00 +11°C° 0 mm 1 m/s 734 mmHg 98%
    06:00 +12°C° 0 mm 1 m/s 734 mmHg 98%
    07:00 +13°C° 0 mm 1 m/s 735 mmHg 97%
    08:00 +13°C° 0 mm 1 m/s 735 mmHg 96%
    09:00 +14°C° 0 mm 1 m/s 735 mmHg 95%
    10:00 +15°C° 0 mm 1 m/s 735 mmHg 86%
    11:00 +17°C° 0 mm 2 m/s 735 mmHg 78%
    12:00 +18°C° 0 mm 2 m/s 735 mmHg 69%
    13:00 +19°C° 0 mm 2 m/s 735 mmHg 66%
    14:00 +20°C° 0 mm 3 m/s 734 mmHg 62%
    15:00 +21°C° 0 mm 3 m/s 734 mmHg 59%
    16:00 +20°C° 0.1 mm 2 m/s 734 mmHg 65%
    17:00 +19°C° 0.1 mm 2 m/s 734 mmHg 71%
    18:00 +18°C° 0.1 mm 2 m/s 734 mmHg 77%
    19:00 +17°C° 0.1 mm 2 m/s 735 mmHg 84%
    20:00 +15°C° 0.1 mm 1 m/s 735 mmHg 91%
    21:00 +13°C° 0.1 mm 1 m/s 735 mmHg 97%
    22:00 +13°C° 0 mm 1 m/s 735 mmHg 98%
    23:00 +12°C° 0 mm 1 m/s 735 mmHg 98%

    Demain, 26 Mai, Dimanche

    Heure Température Précipitation Vent Pression Humidité
    00:00 +12°C° 0 mm 1 m/s 735 mmHg 98%
    01:00 +12°C° 0 mm 1 m/s 735 mmHg 99%
    02:00 +11°C° 0 mm 1 m/s 735 mmHg 99%
    03:00 +11°C° 0 mm 1 m/s 735 mmHg 99%
    04:00 +12°C° 0 mm 1 m/s 735 mmHg 99%
    05:00 +12°C° 0 mm 1 m/s 735 mmHg 98%
    06:00 +13°C° 0 mm 1 m/s 735 mmHg 98%
    07:00 +13°C° 0 mm 1 m/s 735 mmHg 95%
    08:00 +14°C° 0 mm 1 m/s 735 mmHg 93%
    09:00 +15°C° 0 mm 1 m/s 736 mmHg 90%
    10:00 +16°C° 0 mm 1 m/s 735 mmHg 81%
    11:00 +19°C° 0 mm 1 m/s 735 mmHg 71%
    12:00 +19°C° 0 mm 2 m/s 735 mmHg 62%
    13:00 +20°C° 0 mm 2 m/s 735 mmHg 62%
    14:00 +20°C° 0 mm 2 m/s 735 mmHg 63%
    15:00 +20°C° 0 mm 2 m/s 734 mmHg 64%
    16:00 +19°C° 0 mm 2 m/s 734 mmHg 70%
    17:00 +19°C° 0 mm 2 m/s 734 mmHg 77%
    18:00 +18°C° 0 mm 2 m/s 734 mmHg 83%
    19:00 +18°C° 0 mm 1 m/s 734 mmHg 88%
    20:00 +15°C° 0 mm 1 m/s 734 mmHg 93%
    21:00 +14°C° 0 mm 1 m/s 734 mmHg 99%
    22:00 +14°C° 0.1 mm 1 m/s 734 mmHg 99%
    23:00 +14°C° 0.1 mm 1 m/s 734 mmHg 99%

    Après-demain, 27 Mai, Lundi

    Heure Température Précipitation Vent Pression Humidité
    00:00 +14°C° 0.1 mm 1 m/s 734 mmHg 99%
    01:00 +14°C° 0 mm 1 m/s 733 mmHg 99%
    02:00 +14°C° 0 mm 1 m/s 733 mmHg 99%
    03:00 +13°C° 0 mm 1 m/s 733 mmHg 99%
    04:00 +13°C° 0 mm 1 m/s 733 mmHg 99%
    05:00 +13°C° 0 mm 1 m/s 733 mmHg 98%
    06:00 +13°C° 0 mm 1 m/s 733 mmHg 98%
    07:00 +13°C° 0 mm 1 m/s 733 mmHg 96%
    08:00 +14°C° 0 mm 1 m/s 733 mmHg 94%
    09:00 +14°C° 0 mm 1 m/s 733 mmHg 92%
    10:00 +15°C° 0 mm 1 m/s 733 mmHg 89%
    11:00 +15°C° 0 mm 1 m/s 733 mmHg 87%
    12:00 +16°C° 0 mm 1 m/s 733 mmHg 85%
    13:00 +17°C° 0.2 mm 2 m/s 732 mmHg 84%
    14:00 +17°C° 0.2 mm 2 m/s 732 mmHg 82%
    15:00 +18°C° 0.2 mm 2 m/s 732 mmHg 81%
    16:00 +17°C° 0.2 mm 2 m/s 732 mmHg 85%
    17:00 +17°C° 0.2 mm 2 m/s 731 mmHg 88%
    18:00 +16°C° 0.2 mm 2 m/s 731 mmHg 92%
    19:00 +15°C° 0.1 mm 1 m/s 732 mmHg 94%
    20:00 +14°C° 0.1 mm 1 m/s 732 mmHg 96%
    21:00 +13°C° 0.1 mm 1 m/s 732 mmHg 98%
    22:00 +12°C° 0 mm 1 m/s 732 mmHg 98%
    23:00 +11°C° 0 mm 1 m/s 732 mmHg 98%

    28 Mai, Mardi

    Heure Température Précipitation Vent Pression Humidité
    00:00 +11°C° 0 mm 1 m/s 732 mmHg 98%
    01:00 +10°C° 0 mm 1 m/s 732 mmHg 98%
    02:00 +9°C° 0 mm 1 m/s 732 mmHg 98%
    03:00 +9°C° 0 mm 1 m/s 731 mmHg 98%
    04:00 +9°C° 0 mm 1 m/s 732 mmHg 98%
    05:00 +9°C° 0 mm 1 m/s 732 mmHg 97%
    06:00 +10°C° 0 mm 1 m/s 732 mmHg 97%
    07:00 +10°C° 0.1 mm 2 m/s 733 mmHg 90%
    08:00 +12°C° 0.1 mm 2 m/s 733 mmHg 83%
    09:00 +13°C° 0.1 mm 2 m/s 733 mmHg 76%
    10:00 +12°C° 0.2 mm 3 m/s 733 mmHg 75%
    11:00 +13°C° 0.2 mm 3 m/s 733 mmHg 73%
    12:00 +13°C° 0.2 mm 3 m/s 733 mmHg 72%
    13:00 +14°C° 0.2 mm 3 m/s 733 mmHg 70%
    14:00 +14°C° 0.2 mm 3 m/s 733 mmHg 69%
    15:00 +16°C° 0.2 mm 3 m/s 733 mmHg 67%
    16:00 +14°C° 0.4 mm 3 m/s 733 mmHg 75%
    17:00 +13°C° 0.4 mm 3 m/s 733 mmHg 82%
    18:00 +13°C° 0.4 mm 2 m/s 733 mmHg 90%
    19:00 +12°C° 0.1 mm 2 m/s 734 mmHg 93%
    20:00 +10°C° 0.1 mm 1 m/s 734 mmHg 95%
    21:00 +9°C° 0.1 mm 1 m/s 735 mmHg 98%
    22:00 +8°C° 0 mm 1 m/s 735 mmHg 98%
    23:00 +8°C° 0 mm 1 m/s 735 mmHg 99%

    29 Mai, Mercredi

    Heure Température Précipitation Vent Pression Humidité
    00:00 +8°C° 0 mm 1 m/s 736 mmHg 99%
    01:00 +7°C° 0 mm 1 m/s 736 mmHg 99%
    02:00 +7°C° 0 mm 1 m/s 736 mmHg 99%
    03:00 +7°C° 0 mm 1 m/s 736 mmHg 99%
    04:00 +7°C° 0 mm 1 m/s 736 mmHg 99%
    05:00 +8°C° 0 mm 1 m/s 737 mmHg 99%
    06:00 +8°C° 0 mm 2 m/s 737 mmHg 98%
    07:00 +8°C° 0 mm 2 m/s 738 mmHg 95%
    08:00 +9°C° 0 mm 2 m/s 738 mmHg 93%
    09:00 +10°C° 0 mm 2 m/s 738 mmHg 90%
    10:00 +13°C° 0 mm 2 m/s 739 mmHg 78%
    11:00 +15°C° 0 mm 2 m/s 739 mmHg 66%
    12:00 +17°C° 0 mm 3 m/s 739 mmHg 55%
    13:00 +18°C° 0 mm 3 m/s 739 mmHg 53%
    14:00 +18°C° 0 mm 3 m/s 739 mmHg 52%
    15:00 +19°C° 0 mm 3 m/s 739 mmHg 51%
    16:00 +18°C° 0 mm 3 m/s 739 mmHg 55%
    17:00 +18°C° 0 mm 3 m/s 739 mmHg 60%
    18:00 +17°C° 0 mm 2 m/s 739 mmHg 64%
    19:00 +15°C° 0 mm 2 m/s 739 mmHg 74%
    20:00 +12°C° 0 mm 1 m/s 740 mmHg 84%
    21:00 +10°C° 0 mm 1 m/s 740 mmHg 93%
    22:00 +9°C° 0 mm 0 m/s 740 mmHg 94%
    23:00 +8°C° 0 mm 0 m/s 740 mmHg 95%

    30 Mai, Jeudi

    Heure Température Précipitation Vent Pression Humidité
    00:00 +8°C° 0 mm 0 m/s 741 mmHg 96%
    01:00 +7°C° 0 mm 0 m/s 741 mmHg 96%
    02:00 +7°C° 0 mm 0 m/s 740 mmHg 96%
    03:00 +7°C° 0 mm 0 m/s 740 mmHg 96%
    04:00 +8°C° 0 mm 0 m/s 741 mmHg 93%
    05:00 +9°C° 0 mm 0 m/s 741 mmHg 90%
    06:00 +10°C° 0 mm 0 m/s 741 mmHg 87%
    07:00 +13°C° 0 mm 0 m/s 741 mmHg 77%
    08:00 +16°C° 0 mm 1 m/s 741 mmHg 67%
    09:00 +20°C° 0 mm 1 m/s 742 mmHg 56%
    10:00 +20°C° 0 mm 2 m/s 741 mmHg 53%
    11:00 +21°C° 0 mm 2 m/s 741 mmHg 51%
    12:00 +23°C° 0 mm 2 m/s 741 mmHg 48%
    13:00 +23°C° 0 mm 2 m/s 741 mmHg 49%
    14:00 +22°C° 0 mm 3 m/s 741 mmHg 50%
    15:00 +22°C° 0 mm 3 m/s 741 mmHg 51%
    16:00 +21°C° 0 mm 3 m/s 741 mmHg 57%
    17:00 +21°C° 0 mm 2 m/s 740 mmHg 62%
    18:00 +20°C° 0 mm 2 m/s 740 mmHg 67%
    19:00 +18°C° 0 mm 2 m/s 740 mmHg 76%
    20:00 +16°C° 0 mm 1 m/s 741 mmHg 85%
    21:00 +13°C° 0 mm 1 m/s 741 mmHg 94%
    22:00 +13°C° 0 mm 1 m/s 741 mmHg 95%
    23:00 +11°C° 0 mm 0 m/s 741 mmHg 96%
    Voir plus